EW5544 Weather Reports


time (UTC)temp
F
wind
direction
speed
knots
gust
knots
rain 1hr
in
rain 24hr
in
rain mn
in
humidity
%
barometer
mb
20260507064511 59 172 1.7 4.3 0.00 0.06 0.00 90 1013.2
20260507063011 57 169 0.9 2.6 0.00 0.06 0.00 91 1013.2
20260507061507 57 202 0.9 3.5 0.00 0.06 0.00 92 1013.2
20260507060014 56 159 1.7 5.2 0.00 0.06 0.00 92 1013.2
20260507054502 55 183 1.7 3.5 0.00 0.06 0.06 93 1013.0
20260507053100 55 74 4.3 7.0 0.00 0.06 0.06 93 1012.8
20260507051605 54 146 0.9 4.3 0.00 0.06 0.06 93 1012.9
20260507050100 54 111 0.9 3.5 0.00 0.06 0.06 93 1012.8
20260507044558 54 130 0.0 3.5 0.00 0.06 0.06 93 1012.7
20260507043103 54 96 1.7 3.5 0.00 0.06 0.06 93 1012.6
20260507041558 53 113 1.7 4.3 0.00 0.06 0.06 93 1012.5
20260507040059 53 120 2.6 7.0 0.00 0.06 0.06 93 1012.3
20260507034557 53 148 0.9 2.6 0.00 0.06 0.06 92 1012.2
20260507033056 53 136 2.6 8.7 0.00 0.06 0.06 92 1012.2
20260507031554 54 112 1.7 8.7 0.00 0.06 0.06 92 1012.3
20260507030053 54 164 1.7 8.7 0.00 0.06 0.06 92 1012.2
20260507024603 54 111 4.3 7.0 0.04 0.06 0.06 92 1012.1
20260507023049 54 93 4.3 8.7 0.04 0.06 0.06 92 1012.1
20260507021548 55 159 3.5 11.3 0.04 0.06 0.06 92 1012.1
20260507020103 55 161 2.6 7.8 0.05 0.06 0.06 92 1012.3
20260507014553 55 144 3.5 7.8 0.01 0.02 0.02 91 1012.1
20260507013047 55 175 2.6 6.1 0.01 0.02 0.02 91 1012.1
20260507011543 55 130 1.7 4.3 0.01 0.02 0.02 90 1012.1
20260507010041 55 123 2.6 7.8 0.00 0.01 0.01 89 1012.0
20260507004544 56 171 3.5 8.7 0.00 0.01 0.01 89 1011.9
20260507003042 56 152 3.5 7.0 0.00 0.01 0.01 88 1012.0
20260507001542 56 129 2.6 9.6 0.00 0.01 0.01 88 1012.0
20260507000039 56 194 3.5 7.8 0.00 0.01 0.01 87 1012.1
20260506234540 57 94 4.3 11.3 0.00 0.01 0.01 87 1012.0
20260506233039 57 193 1.7 7.8 0.00 0.01 0.01 88 1012.2
20260506231548 57 156 4.3 7.8 0.00 0.01 0.01 88 1012.2
20260506230051 57 158 1.7 7.0 0.00 0.01 0.01 88 1012.4
20260506224538 57 161 1.7 7.8 0.00 0.01 0.01 88 1012.3
20260506223049 58 134 4.3 10.4 0.00 0.01 0.01 88 1012.2
20260506221536 58 178 2.6 13.0 0.00 0.01 0.01 88 1012.3
20260506220037 58 153 4.3 11.3 0.00 0.01 0.01 89 1012.2
20260506214535 58 117 3.5 8.7 0.00 0.01 0.01 90 1012.4
20260506213056 58 215 1.7 8.7 0.00 0.01 0.01 90 1012.4
20260506211547 58 98 4.3 7.8 0.00 0.01 0.01 90 1012.3
20260506210037 58 161 4.3 9.6 0.00 0.01 0.01 89 1012.4
20260506204538 59 191 2.6 7.0 0.00 0.01 0.01 88 1012.2
20260506203032 59 163 2.6 7.0 0.00 0.01 0.01 87 1012.2
20260506201535 59 159 0.9 4.3 0.00 0.01 0.01 87 1012.2
20260506200028 59 113 2.6 6.1 0.00 0.01 0.01 86 1012.0
20260506194530 59 109 1.7 5.2 0.00 0.01 0.01 85 1011.9
20260506193030 60 130 1.7 5.2 0.00 0.01 0.01 84 1011.9
20260506191535 60 161 1.7 7.0 0.00 0.01 0.01 84 1011.7
20260506190030 60 128 2.6 7.8 0.00 0.01 0.01 84 1011.5
20260506184529 60 155 1.7 3.5 0.00 0.01 0.01 84 1011.4
20260506183036 60 110 0.9 6.1 0.00 0.01 0.01 84 1011.4
20260506181528 60 173 1.7 7.0 0.00 0.01 0.01 84 1011.3
20260506180028 60 165 3.5 7.8 0.00 0.01 0.01 83 1011.3
20260506174526 60 192 1.7 8.7 0.00 0.01 0.01 83 1011.2
20260506173028 60 132 2.6 8.7 0.00 0.01 0.01 82 1011.1
20260506171530 61 209 2.6 6.1 0.00 0.01 0.01 83 1011.1
20260506170030 61 153 2.6 9.6 0.00 0.01 0.01 83 1011.0
20260506164525 61 125 2.6 9.6 0.00 0.01 0.01 83 1010.9
20260506163027 61 193 4.3 8.7 0.00 0.01 0.01 84 1011.1
20260506161527 61 189 5.2 8.7 0.00 0.01 0.01 83 1011.1
20260506160026 61 180 3.5 8.7 0.00 0.01 0.01 83 1011.1
20260506154627 62 154 4.3 14.8 0.00 0.01 0.01 81 1011.1
20260506153022 62 105 3.5 7.8 0.00 0.01 0.01 82 1011.1
20260506151522 63 216 2.6 7.8 0.00 0.01 0.01 82 1011.0
20260506150021 63 121 0.0 0.0 0.00 0.01 0.01 78 1011.0
20260506144519 63 135 0.0 0.0 0.00 0.01 0.01 75 1010.9
20260506143029 63 144 0.0 0.0 0.00 0.01 0.01 74 1011.0
20260506141519 63 163 2.6 11.3 0.00 0.01 0.01 74 1011.1
20260506140019 64 175 4.3 10.4 0.00 0.01 0.01 73 1011.0
20260506134518 65 157 3.5 10.4 0.00 0.01 0.01 70 1010.9
20260506133015 65 188 4.3 15.6 0.00 0.01 0.01 68 1011.2
20260506131515 64 148 5.2 11.3 0.00 0.01 0.01 66 1011.4
20260506130016 65 142 3.5 12.2 0.00 0.01 0.01 66 1011.5
20260506124513 65 161 6.1 13.9 0.00 0.01 0.01 66 1011.6
20260506123018 66 156 3.5 9.6 0.00 0.01 0.01 64 1011.4
20260506121521 65 216 6.1 14.8 0.00 0.01 0.01 62 1011.6
20260506120013 68 188 7.0 14.8 0.00 0.01 0.01 60 1011.5
20260506114510 66 180 10.4 17.4 0.00 0.01 0.01 63 1011.4
20260506113016 66 168 6.1 13.9 0.00 0.01 0.01 65 1011.5
20260506111506 64 136 5.2 12.2 0.00 0.01 0.01 69 1011.7
20260506110010 64 153 5.2 12.2 0.00 0.01 0.01 68 1011.8
20260506104505 63 159 4.3 9.6 0.00 0.01 0.01 70 1011.9
20260506103009 64 138 5.2 13.0 0.00 0.01 0.01 67 1011.9
20260506101501 64 190 3.5 20.0 0.00 0.01 0.01 70 1012.0
20260506100059 64 159 6.1 16.5 0.00 0.01 0.01 70 1011.8
20260506094604 63 131 5.2 11.3 0.00 0.01 0.01 71 1012.0
20260506093058 63 187 4.3 13.9 0.00 0.01 0.01 74 1011.8
20260506091606 61 214 6.1 14.8 0.00 0.01 0.01 75 1012.1
20260506090058 61 167 0.0 0.0 0.00 0.01 0.01 75 1011.9
20260506084614 61 157 0.0 11.3 0.00 0.01 0.01 75 1011.7
20260506083052 62 129 6.1 11.3 0.00 0.01 0.01 75 1011.7
20260506081547 60 175 5.2 8.7 0.00 0.01 0.01 80 1011.7
20260506073051 59 130 4.3 13.0 0.00 0.02 0.01 82 1011.6
20260506071539 59 123 2.6 10.4 0.00 0.02 0.01 84 1011.7